This demonstration page uses our WeatherBlox Daily Observations layout. Learn more.

38.89511, -77.03637

Hourly Observations for April 30, 2015

Temp ( °F °C ) Dew Point ( °F °C ) Humidity (%) Winds ( mph kmh ) Pressure ( in mb ) Visibility ( mi km ) Precip ( " mm )
12:52 am 00:52 Mostly Cloudy 60 15.6 48 8.9 65 65 S 5 7 29.7 1006 10 16.0934 0 0
1:52 am 01:52 Mostly Cloudy 59 15 48 8.9 67 67 S 5 7 29.68 1005 10 16.0934 0 0
2:52 am 02:52 Partly Cloudy 57 13.9 48 8.9 72 72 SSW 5 7 29.66 1004 10 16.0934 0 0
3:52 am 03:52 Cloudy 57 13.9 46 7.8 67 67 SSW 3 6 29.65 1004 10 16.0934 0 0
4:52 am 04:52 Cloudy 58 14.4 46 7.8 65 65 Calm 29.66 1004 10 16.0934 0 0
5:52 am 05:52 Cloudy 56 13.3 48 8.9 75 75 S 5 7 29.66 1004 10 16.0934 0 0
6:37 am 06:37 Cloudy 57 14 48 9 72 72 Calm 29.68 1005 10 16.0934 0 0
6:52 am 06:52 Mostly Cloudy 58 14.4 49 9.4 72 72 NE 9 15 29.68 1005 10 16.0934 0 0
7:52 am 07:52 Mostly Cloudy 59 15 47 8.3 64 64 NE 7 11 29.69 1005 10 16.0934 0 0
8:52 am 08:52 Mostly Cloudy 63 17.2 47 8.3 56 56 NE 3 6 29.7 1006 10 16.0934 0 0
9:52 am 09:52 Cloudy 67 19.4 49 9.4 53 53 Calm 29.7 1006 10 16.0934 0 0
10:52 am 10:52 Cloudy 69 20.6 50 10 51 51 ENE 3 6 29.7 1006 10 16.0934 0 0
11:52 am 11:52 Cloudy 72 22.2 52 11.1 50 50 S 3 6 29.7 1006 10 16.0934 0 0
12:52 pm 12:52 Cloudy 72 22.2 51 10.6 48 48 S 5 7 29.69 1005 10 16.0934 0 0
1:18 pm 13:18 Cloudy with Light Rain 70 21 54 12 57 57 S 7 11 29.68 1005 6 9.65604 0 0
1:30 pm 13:30 Cloudy with Light Thunderstorms 70 21 48 9 46 46 SSW 5 7 29.68 1005 10 16.0934 0 0
1:37 pm 13:37 Cloudy with Heavy Thunderstorms 64 18 54 12 68 68 S 24 39 29.68 1005 7 11.26538 0.07 1.778
1:47 pm 13:47 Cloudy with Thunderstorms 63 17 48 9 59 59 SW 13 20 29.68 1005 7 11.26538 0.23 5.842
1:52 pm 13:52 Cloudy with Heavy Thunderstorms 62 16.7 49 9.4 62 62 SW 5 7 29.69 1005 7 11.26538 0.32 8.128
1:55 pm 13:55 Cloudy with Heavy Thunderstorms 63 17 48 9 59 59 Calm 29.68 1005 7 11.26538 0.06 1.524
2:08 pm 14:08 Cloudy with Light Rain 64 18 48 9 56 56 S 7 11 29.68 1005 9 14.48406 0 0
2:52 pm 14:52 Cloudy 71 21.7 50 10 47 47 SW 5 7 29.67 1005 10 16.0934 0.22 5.588
3:32 pm 15:32 Mostly Cloudy 72 22 50 10 47 47 S 5 7 29.65 1004 10 16.0934 0 0
3:52 pm 15:52 Mostly Cloudy 73 22.8 52 11.1 48 48 S 7 11 29.66 1004 10 16.0934 0 0
4:19 pm 16:19 Mostly Cloudy 72 22 52 11 50 50 S 7 11 29.65 1004 10 16.0934 0 0
4:52 pm 16:52 Mostly Cloudy 74 23.3 50 10 43 43 S 7 11 29.66 1004 10 16.0934 0 0
5:15 pm 17:15 Mostly Cloudy 70 21 48 9 46 46 SSE 8 13 29.68 1005 10 16.0934 0 0
5:52 pm 17:52 Mostly Cloudy 71 21.7 48 8.9 44 44 SE 5 7 29.68 1005 10 16.0934 0 0
6:07 pm 18:07 Mostly Cloudy with Light Rain 70 21 48 9 46 46 SSE 9 15 29.68 1005 10 16.0934 0 0.0254
6:29 pm 18:29 Mostly Cloudy 70 21 48 9 46 46 SSE 8 13 29.68 1005 10 16.0934 0 0.0254
6:52 pm 18:52 Mostly Cloudy 69 20.6 51 10.6 53 53 S 9 15 29.7 1006 10 16.0934 0 0.0254
7:40 pm 19:40 Mostly Cloudy 66 19 46 8 49 49 WNW 16 26 29.74 1007 10 16.0934 0 0
7:45 pm 19:45 Cloudy 66 19 46 8 49 49 WNW 14 22 29.74 1007 10 16.0934 0 0
7:52 pm 19:52 Cloudy 65 18.3 47 8.3 52 52 WNW 15 24 29.75 1007 10 16.0934 0 0
8:52 pm 20:52 Mostly Cloudy 60 15.6 50 10 70 70 NW 15 24 29.77 1008 10 16.0934 0 0
9:52 pm 21:52 Mostly Cloudy 58 14.4 51 10.6 78 78 N 10 17 29.8 1009 10 16.0934 0 0
10:52 pm 22:52 Mostly Cloudy 58 14.4 52 11.1 81 81 NNW 8 13 29.8 1009 10 16.0934 0 0
11:52 pm 23:52 Mostly Cloudy 61 16.1 50 10 67 67 ENE 9 15 29.82 1010 10 16.0934 0 0

Powered by AerisWeather